TimeCST,TemperatureF,Dew PointF,Humidity,Sea Level PressureIn,VisibilityMPH,Wind Direction,Wind SpeedMPH,Gust SpeedMPH,PrecipitationIn,Events,Conditions,WindDirDegrees,DateUTC
7:55 AM,46.4,30.2,53,29.87,10.0,SSW,12.7,-,N/A,,Mostly Cloudy,210,2012-12-06 13:55:00
8:15 AM,44.6,30.2,57,29.88,10.0,SW,10.4,-,N/A,,Overcast,220,2012-12-06 14:15:00
8:35 AM,44.6,30.2,57,29.89,10.0,SW,10.4,-,N/A,,Overcast,230,2012-12-06 14:35:00
8:55 AM,44.6,33.8,66,29.89,10.0,SW,10.4,-,N/A,Rain,Light Rain,220,2012-12-06 14:55:00
9:15 AM,44.6,33.8,66,29.90,10.0,SW,10.4,-,N/A,Rain,Light Rain,230,2012-12-06 15:15:00
9:35 AM,44.6,33.8,66,29.90,10.0,WSW,9.2,-,N/A,,Overcast,240,2012-12-06 15:35:00
9:55 AM,44.6,35.6,71,29.90,10.0,WSW,10.4,-,N/A,,Light Drizzle,240,2012-12-06 15:55:00
10:15 AM,44.6,35.6,71,29.91,10.0,WSW,9.2,-,N/A,,Scattered Clouds,240,2012-12-06 16:15:00
10:35 AM,44.6,33.8,66,29.91,10.0,West,10.4,-,N/A,,Mostly Cloudy,260,2012-12-06 16:35:00
10:55 AM,46.4,35.6,66,29.90,10.0,West,9.2,-,N/A,,Overcast,280,2012-12-06 16:55:00
11:15 AM,46.4,33.8,62,29.90,10.0,West,11.5,-,N/A,,Overcast,280,2012-12-06 17:15:00
11:35 AM,46.4,35.6,66,29.90,10.0,WNW,10.4,-,N/A,,Scattered Clouds,300,2012-12-06 17:35:00
11:55 AM,46.4,35.6,66,29.90,10.0,WNW,10.4,-,N/A,,Partly Cloudy,300,2012-12-06 17:55:00
12:15 PM,46.4,37.4,71,29.90,10.0,NNW,12.7,-,N/A,,Scattered Clouds,330,2012-12-06 18:15:00
12:35 PM,46.4,35.6,66,29.89,10.0,North,18.4,-,N/A,,Mostly Cloudy,350,2012-12-06 18:35:00
12:55 PM,46.4,35.6,66,29.89,10.0,North,12.7,19.6,N/A,,Mostly Cloudy,350,2012-12-06 18:55:00
1:15 PM,46.4,35.6,66,29.90,10.0,North,13.8,-,N/A,,Overcast,350,2012-12-06 19:15:00
1:35 PM,48.2,35.6,62,29.89,10.0,North,16.1,-,N/A,,Scattered Clouds,350,2012-12-06 19:35:00
1:55 PM,48.2,33.8,58,29.89,10.0,North,17.3,-,N/A,,Scattered Clouds,350,2012-12-06 19:55:00
2:15 PM,48.2,32.0,54,29.90,10.0,North,15.0,-,N/A,,Scattered Clouds,360,2012-12-06 20:15:00
2:35 PM,48.2,33.8,58,29.90,10.0,North,15.0,-,N/A,,Mostly Cloudy,360,2012-12-06 20:35:00
2:55 PM,48.2,32.0,54,29.90,10.0,North,12.7,19.6,N/A,,Overcast,360,2012-12-06 20:55:00
3:15 PM,48.2,33.8,58,29.90,10.0,North,12.7,-,N/A,,Overcast,360,2012-12-06 21:15:00
3:35 PM,46.4,33.8,62,29.91,10.0,North,12.7,-,N/A,,Overcast,360,2012-12-06 21:35:00
3:55 PM,46.4,33.8,62,29.92,10.0,North,13.8,-,N/A,,Overcast,360,2012-12-06 21:55:00
4:15 PM,46.4,33.8,62,29.93,10.0,North,12.7,-,N/A,,Overcast,360,2012-12-06 22:15:00
4:35 PM,44.6,32.0,61,29.93,10.0,North,15.0,-,N/A,,Overcast,350,2012-12-06 22:35:00
4:55 PM,44.6,32.0,61,29.94,10.0,North,9.2,-,N/A,,Overcast,350,2012-12-06 22:55:00
5:15 PM,42.8,32.0,66,29.94,10.0,North,10.4,-,N/A,,Overcast,350,2012-12-06 23:15:00
5:35 PM,42.8,32.0,66,29.95,10.0,NNW,8.1,-,N/A,,Overcast,340,2012-12-06 23:35:00
5:55 PM,41.0,32.0,70,29.94,10.0,NNW,5.8,-,N/A,,Overcast,340,2012-12-06 23:55:00
6:15 PM,39.2,32.0,75,29.94,10.0,NNW,4.6,-,N/A,,Overcast,340,2012-12-07 00:15:00
6:35 PM,39.2,32.0,75,29.95,10.0,NNW,4.6,-,N/A,,Overcast,340,2012-12-07 00:35:00
7:15 PM,39.2,32.0,75,29.95,10.0,North,5.8,-,N/A,,Mostly Cloudy,10,2012-12-07 01:15:00
7:35 PM,37.4,32.0,81,29.96,10.0,NNW,5.8,-,N/A,,Partly Cloudy,330,2012-12-07 01:35:00
7:55 PM,33.8,30.2,87,29.96,10.0,NNW,3.5,-,N/A,,Mostly Cloudy,330,2012-12-07 01:55:00
8:35 PM,37.4,32.0,81,29.97,10.0,NNW,6.9,-,N/A,,Overcast,340,2012-12-07 02:35:00
8:55 PM,37.4,32.0,81,29.97,10.0,NNW,6.9,-,N/A,,Mostly Cloudy,330,2012-12-07 02:55:00
9:15 PM,39.2,32.0,75,29.97,10.0,NNW,5.8,-,N/A,,Mostly Cloudy,330,2012-12-07 03:15:00
9:35 PM,37.4,32.0,81,29.97,10.0,NW,5.8,-,N/A,,Overcast,310,2012-12-07 03:35:00
9:55 PM,37.4,32.0,81,29.97,10.0,NNW,5.8,-,N/A,,Overcast,330,2012-12-07 03:55:00
10:15 PM,37.4,30.2,75,29.98,10.0,NW,6.9,-,N/A,,Overcast,310,2012-12-07 04:15:00
10:35 PM,35.6,30.2,81,29.97,10.0,NNW,4.6,-,N/A,,Overcast,340,2012-12-07 04:35:00
10:55 PM,37.4,32.0,81,29.98,10.0,NNW,8.1,-,N/A,,Overcast,330,2012-12-07 04:55:00
11:15 PM,39.2,32.0,75,29.98,10.0,NNW,11.5,-,N/A,,Overcast,340,2012-12-07 05:15:00
11:35 PM,39.2,32.0,75,29.97,10.0,North,9.2,-,N/A,,Overcast,360,2012-12-07 05:35:00
11:55 PM,39.2,32.0,75,29.98,10.0,North,9.2,-,N/A,,Overcast,350,2012-12-07 05:55:00